Time,TemperatureF,DewpointF,PressureIn,WindDirection,WindDirectionDegrees,WindSpeedMPH,WindSpeedGustMPH,Humidity,HourlyPrecipIn,Conditions,Clouds,dailyrainin,SoftwareType,DateUTC
2013-08-11 00:01:00,66.4,65.8,27.79,SSE,157,0.0,0.0,98,0.00,,---,0.00,VWS V14.01,2013-08-11 04:01:00,
2013-08-11 00:06:00,66.4,65.8,27.79,SSE,157,0.0,0.0,98,0.00,,---,0.00,VWS V14.01,2013-08-11 04:06:00,
2013-08-11 00:11:00,66.4,65.8,27.70,SSE,157,0.0,0.0,98,0.00,,---,0.00,VWS V14.01,2013-08-11 04:11:00,
2013-08-11 00:16:00,66.2,65.6,27.70,SSE,157,0.0,0.0,98,0.00,,---,0.00,VWS V14.01,2013-08-11 04:16:00,
2013-08-11 00:21:00,66.2,65.6,27.70,SSE,157,0.0,0.0,98,0.00,,---,0.00,VWS V14.01,2013-08-11 04:21:00,
2013-08-11 00:26:00,66.2,65.6,27.70,SSE,157,0.0,0.0,98,0.00,,---,0.00,VWS V14.01,2013-08-11 04:26:00,
2013-08-11 00:31:00,66.0,65.4,27.70,SSE,157,0.0,0.0,98,0.00,,---,0.00,VWS V14.01,2013-08-11 04:31:00,
2013-08-11 00:36:00,66.0,65.4,27.70,SSE,157,0.0,0.0,98,0.00,,---,0.00,VWS V14.01,2013-08-11 04:36:00,
2013-08-11 00:41:00,66.0,65.4,27.70,SSE,157,0.0,0.0,98,0.00,,---,0.00,VWS V14.01,2013-08-11 04:41:00,
2013-08-11 00:46:00,66.0,65.4,27.70,SSE,157,0.0,0.0,98,0.00,,---,0.00,VWS V14.01,2013-08-11 04:46:00,
2013-08-11 00:51:00,66.0,65.4,27.70,SSE,157,0.0,0.0,98,0.00,,---,0.00,VWS V14.01,2013-08-11 04:51:00,
2013-08-11 00:56:00,65.8,65.3,27.70,SSE,157,0.0,0.0,98,0.00,,---,0.00,VWS V14.01,2013-08-11 04:56:00,
2013-08-11 01:01:00,65.8,65.3,27.70,SSE,157,0.0,0.0,98,0.00,,---,0.00,VWS V14.01,2013-08-11 05:01:00,
2013-08-11 01:06:00,65.8,65.3,27.70,SSE,157,0.0,0.0,98,0.00,,---,0.00,VWS V14.01,2013-08-11 05:06:00,
2013-08-11 01:12:00,65.8,65.3,27.67,SSE,157,0.0,0.0,98,0.00,,---,0.00,VWS V14.01,2013-08-11 05:12:00,
2013-08-11 01:17:00,65.8,65.3,27.67,SSE,157,0.0,0.0,98,0.00,,---,0.00,VWS V14.01,2013-08-11 05:17:00,
2013-08-11 01:22:00,65.8,65.3,27.67,SSE,157,0.0,0.0,98,0.00,,---,0.00,VWS V14.01,2013-08-11 05:22:00,
2013-08-11 01:27:00,65.7,65.1,27.76,SSE,157,0.0,0.0,98,0.00,,---,0.00,VWS V14.01,2013-08-11 05:27:00,
2013-08-11 01:32:00,65.7,65.1,27.76,SSE,157,0.0,0.0,98,0.00,,---,0.00,VWS V14.01,2013-08-11 05:32:00,
2013-08-11 01:37:00,65.8,65.3,27.76,SSE,157,0.0,0.0,98,0.00,,---,0.00,VWS V14.01,2013-08-11 05:37:00,
2013-08-11 01:42:00,65.8,65.3,27.76,SSE,157,0.0,0.0,98,0.00,,---,0.00,VWS V14.01,2013-08-11 05:42:00,
2013-08-11 01:47:00,65.7,65.1,27.76,SSE,157,0.0,0.0,98,0.00,,---,0.00,VWS V14.01,2013-08-11 05:47:00,
2013-08-11 01:52:00,65.7,65.1,27.76,SSE,157,0.0,0.0,98,0.00,,---,0.00,VWS V14.01,2013-08-11 05:52:00,
2013-08-11 01:57:00,65.5,64.9,27.79,SSE,157,0.0,0.0,98,0.00,,---,0.00,VWS V14.01,2013-08-11 05:57:00,
2013-08-11 02:02:00,65.5,64.9,27.79,SSE,157,0.0,0.0,98,0.00,,---,0.00,VWS V14.01,2013-08-11 06:02:00,
2013-08-11 02:07:00,65.5,64.9,27.79,SSE,157,0.0,0.0,98,0.00,,---,0.00,VWS V14.01,2013-08-11 06:07:00,
2013-08-11 02:12:00,65.3,64.7,27.73,SSE,157,0.0,0.0,98,0.00,,---,0.00,VWS V14.01,2013-08-11 06:12:00,
2013-08-11 02:17:00,65.3,64.7,27.73,SSE,157,0.0,0.0,98,0.00,,---,0.00,VWS V14.01,2013-08-11 06:17:00,
2013-08-11 02:23:00,65.3,64.7,27.73,SSE,157,0.0,0.0,98,0.00,,---,0.00,VWS V14.01,2013-08-11 06:23:00,
2013-08-11 02:27:00,65.1,64.5,27.79,SSE,157,0.0,0.0,98,0.00,,---,0.00,VWS V14.01,2013-08-11 06:27:00,
2013-08-11 02:32:00,65.1,64.5,27.79,SSE,157,0.0,0.0,98,0.00,,---,0.00,VWS V14.01,2013-08-11 06:32:00,
2013-08-11 02:38:00,65.1,64.5,27.79,SSE,157,0.0,0.0,98,0.00,,---,0.00,VWS V14.01,2013-08-11 06:38:00,
2013-08-11 02:42:00,65.5,64.9,27.70,SSE,157,0.0,0.0,98,0.00,,---,0.00,VWS V14.01,2013-08-11 06:42:00,
2013-08-11 02:47:00,65.5,64.9,27.70,SSE,157,0.0,0.0,98,0.00,,---,0.00,VWS V14.01,2013-08-11 06:47:00,
2013-08-11 02:53:00,65.5,64.9,27.70,SSE,157,0.0,0.0,98,0.00,,---,0.00,VWS V14.01,2013-08-11 06:53:00,
2013-08-11 02:58:00,65.7,65.1,27.76,SSE,157,0.0,0.0,98,0.00,,---,0.00,VWS V14.01,2013-08-11 06:58:00,
2013-08-11 03:03:00,65.7,65.1,27.76,SSE,157,0.0,0.0,98,0.00,,---,0.00,VWS V14.01,2013-08-11 07:03:00,
2013-08-11 03:08:00,65.7,65.1,27.76,SSE,157,0.0,0.0,98,0.00,,---,0.00,VWS V14.01,2013-08-11 07:08:00,
2013-08-11 03:13:00,65.7,65.1,27.79,SSE,157,0.0,0.0,98,0.00,,---,0.00,VWS V14.01,2013-08-11 07:13:00,
2013-08-11 03:18:00,65.7,65.1,27.79,SSE,157,0.0,0.0,98,0.00,,---,0.00,VWS V14.01,2013-08-11 07:18:00,
2013-08-11 03:23:00,65.7,65.1,27.79,SSE,157,0.0,0.0,98,0.00,,---,0.00,VWS V14.01,2013-08-11 07:23:00,
2013-08-11 03:28:00,65.7,65.1,27.73,SSE,157,0.0,0.0,98,0.00,,---,0.00,VWS V14.01,2013-08-11 07:28:00,
2013-08-11 03:33:00,65.7,65.1,27.73,SSE,157,0.0,0.0,98,0.00,,---,0.00,VWS V14.01,2013-08-11 07:33:00,
2013-08-11 03:38:00,65.5,64.9,27.73,SSE,157,0.0,0.0,98,0.00,,---,0.00,VWS V14.01,2013-08-11 07:38:00,
2013-08-11 03:43:00,65.5,64.9,27.76,SSE,157,0.0,0.0,98,0.00,,---,0.00,VWS V14.01,2013-08-11 07:43:00,
2013-08-11 03:48:00,65.3,64.7,27.76,SSE,157,0.0,0.0,98,0.00,,---,0.00,VWS V14.01,2013-08-11 07:48:00,
2013-08-11 03:53:00,65.3,64.7,27.76,SSE,157,0.0,0.0,98,0.00,,---,0.00,VWS V14.01,2013-08-11 07:53:00,
2013-08-11 03:58:00,65.3,64.7,27.76,SSE,157,0.0,0.0,98,0.00,,---,0.00,VWS V14.01,2013-08-11 07:58:00,
2013-08-11 04:03:00,65.3,64.7,27.76,SSE,157,0.0,0.0,98,0.00,,---,0.00,VWS V14.01,2013-08-11 08:03:00,
2013-08-11 04:08:00,65.3,64.7,27.76,SSE,157,0.0,0.0,98,0.00,,---,0.00,VWS V14.01,2013-08-11 08:08:00,
2013-08-11 04:13:00,65.3,64.7,27.82,SSE,157,0.0,0.0,98,0.00,,---,0.00,VWS V14.01,2013-08-11 08:13:00,
2013-08-11 04:18:00,65.5,64.9,27.82,SSE,157,0.0,0.0,98,0.00,,---,0.00,VWS V14.01,2013-08-11 08:18:00,
2013-08-11 04:23:00,65.5,64.9,27.82,SSE,157,0.0,0.0,98,0.00,,---,0.00,VWS V14.01,2013-08-11 08:23:00,
2013-08-11 04:28:00,65.5,64.9,27.73,SSE,157,0.0,0.0,98,0.00,,---,0.00,VWS V14.01,2013-08-11 08:28:00,
2013-08-11 04:34:00,65.5,64.9,27.73,SSE,157,0.0,0.0,98,0.00,,---,0.00,VWS V14.01,2013-08-11 08:34:00,
2013-08-11 04:39:00,65.5,64.9,27.73,SSE,157,0.0,0.0,98,0.00,,---,0.00,VWS V14.01,2013-08-11 08:39:00,
2013-08-11 04:44:00,65.5,64.9,27.73,SSE,157,0.0,0.0,98,0.00,,---,0.00,VWS V14.01,2013-08-11 08:44:00,
2013-08-11 04:49:00,65.7,65.1,27.73,SSE,157,0.0,0.0,98,0.00,,---,0.00,VWS V14.01,2013-08-11 08:49:00,
2013-08-11 04:54:00,65.5,64.9,27.73,SSE,157,0.0,0.0,98,0.00,,---,0.00,VWS V14.01,2013-08-11 08:54:00,
2013-08-11 04:59:00,65.5,64.9,27.76,SSE,157,0.0,0.0,98,0.00,,---,0.00,VWS V14.01,2013-08-11 08:59:00,
2013-08-11 05:04:00,65.5,64.9,27.76,SSE,157,0.0,0.0,98,0.00,,---,0.00,VWS V14.01,2013-08-11 09:04:00,
2013-08-11 05:09:00,65.5,64.9,27.76,SSE,157,0.0,0.0,98,0.00,,---,0.00,VWS V14.01,2013-08-11 09:09:00,
2013-08-11 05:14:00,65.7,65.1,27.76,SSE,157,0.0,0.0,98,0.00,,---,0.00,VWS V14.01,2013-08-11 09:14:00,
2013-08-11 05:19:00,65.7,65.1,27.76,SSE,157,0.0,0.0,98,0.00,,---,0.00,VWS V14.01,2013-08-11 09:19:00,
2013-08-11 05:24:00,65.7,65.1,27.76,SSE,157,0.0,0.0,98,0.00,,---,0.00,VWS V14.01,2013-08-11 09:24:00,
2013-08-11 05:29:00,65.7,65.1,27.79,SSE,157,0.0,0.0,98,0.00,,---,0.00,VWS V14.01,2013-08-11 09:29:00,
2013-08-11 05:34:00,65.7,65.1,27.79,SSE,157,0.0,0.0,98,0.00,,---,0.00,VWS V14.01,2013-08-11 09:34:00,
2013-08-11 05:40:00,65.7,65.1,27.88,SSE,157,0.0,0.0,98,0.00,,---,0.00,VWS V14.01,2013-08-11 09:40:00,
2013-08-11 05:45:00,65.5,64.9,27.88,SSE,157,0.0,0.0,98,0.00,,---,0.00,VWS V14.01,2013-08-11 09:45:00,
2013-08-11 05:50:00,65.5,64.9,27.88,SSE,157,0.0,0.0,98,0.00,,---,0.00,VWS V14.01,2013-08-11 09:50:00,
2013-08-11 05:55:00,65.5,64.9,27.88,SSE,157,0.0,0.0,98,0.00,,---,0.00,VWS V14.01,2013-08-11 09:55:00,
2013-08-11 06:00:00,65.5,64.9,27.88,SSE,157,0.0,0.0,98,0.00,,---,0.00,VWS V14.01,2013-08-11 10:00:00,
2013-08-11 06:05:00,65.5,64.9,27.88,SSE,157,0.0,0.0,98,0.00,,---,0.00,VWS V14.01,2013-08-11 10:05:00,
2013-08-11 06:10:00,65.5,64.9,27.82,SSE,157,0.0,0.0,98,0.00,,---,0.00,VWS V14.01,2013-08-11 10:10:00,
2013-08-11 06:15:00,65.5,64.9,27.82,SSE,157,0.0,0.0,98,0.00,,---,0.00,VWS V14.01,2013-08-11 10:15:00,
2013-08-11 06:20:00,65.5,64.9,27.82,SSE,157,0.0,0.0,98,0.00,,---,0.00,VWS V14.01,2013-08-11 10:20:00,
2013-08-11 06:25:00,65.3,64.7,27.79,SSE,157,0.0,0.0,98,0.00,,---,0.00,VWS V14.01,2013-08-11 10:25:00,
2013-08-11 06:30:00,65.1,64.5,27.79,SSE,157,0.0,0.0,98,0.00,,---,0.00,VWS V14.01,2013-08-11 10:30:00,
2013-08-11 06:36:00,65.1,64.5,27.79,SSE,157,0.0,0.0,98,0.00,,---,0.00,VWS V14.01,2013-08-11 10:36:00,
2013-08-11 06:41:00,65.1,64.5,27.88,SSE,157,0.0,0.0,98,0.00,,---,0.00,VWS V14.01,2013-08-11 10:41:00,
2013-08-11 06:46:00,65.1,64.5,27.88,SSE,157,0.0,0.0,98,0.00,,---,0.00,VWS V14.01,2013-08-11 10:46:00,
2013-08-11 06:51:00,65.3,64.7,27.88,SSE,157,0.0,0.0,98,0.00,,---,0.00,VWS V14.01,2013-08-11 10:51:00,
2013-08-11 06:56:00,65.3,64.7,27.94,SSE,157,0.0,0.0,98,0.00,,---,0.00,VWS V14.01,2013-08-11 10:56:00,
2013-08-11 07:01:00,65.5,64.9,27.94,SSE,157,0.0,0.0,98,0.00,,---,0.00,VWS V14.01,2013-08-11 11:01:00,
2013-08-11 07:06:00,65.5,64.9,27.94,SSE,157,0.0,0.0,98,0.00,,---,0.00,VWS V14.01,2013-08-11 11:06:00,
2013-08-11 07:11:00,65.7,65.1,27.76,SSE,157,0.0,0.0,98,0.00,,---,0.00,VWS V14.01,2013-08-11 11:11:00,
2013-08-11 07:16:00,65.8,65.3,27.76,SSE,157,0.0,0.0,98,0.00,,---,0.00,VWS V14.01,2013-08-11 11:16:00,
2013-08-11 07:21:00,66.0,65.4,27.76,SSE,157,0.0,0.0,98,0.00,,---,0.00,VWS V14.01,2013-08-11 11:21:00,
2013-08-11 07:26:00,66.2,65.6,27.85,SSE,157,0.0,0.0,98,0.00,,---,0.00,VWS V14.01,2013-08-11 11:26:00,
2013-08-11 07:31:00,66.4,65.8,27.85,SSE,157,0.0,0.0,98,0.00,,---,0.00,VWS V14.01,2013-08-11 11:31:00,
2013-08-11 07:36:00,66.6,66.0,27.85,SSE,157,0.0,0.0,98,0.00,,---,0.00,VWS V14.01,2013-08-11 11:36:00,
2013-08-11 07:41:00,66.7,66.2,27.85,SSE,157,0.0,0.0,98,0.00,,---,0.00,VWS V14.01,2013-08-11 11:41:00,
2013-08-11 07:46:00,66.9,66.3,27.85,SSE,157,0.0,0.0,98,0.00,,---,0.00,VWS V14.01,2013-08-11 11:46:00,
2013-08-11 07:51:00,67.1,66.5,27.85,SSE,157,0.0,0.0,98,0.00,,---,0.00,VWS V14.01,2013-08-11 11:51:00,
2013-08-11 07:56:00,67.3,66.7,27.94,SSE,157,0.0,0.0,98,0.00,,---,0.00,VWS V14.01,2013-08-11 11:56:00,
2013-08-11 08:01:00,67.5,66.9,27.94,SSE,157,0.0,0.0,98,0.00,,---,0.00,VWS V14.01,2013-08-11 12:01:00,
2013-08-11 08:07:00,67.6,67.1,27.94,SSE,157,0.0,0.0,98,0.00,,---,0.00,VWS V14.01,2013-08-11 12:07:00,
2013-08-11 08:12:00,67.8,67.2,27.76,SSE,157,0.0,0.0,98,0.00,,---,0.00,VWS V14.01,2013-08-11 12:12:00,
2013-08-11 08:17:00,68.0,67.4,27.76,SSE,157,0.0,0.0,98,0.00,,---,0.00,VWS V14.01,2013-08-11 12:17:00,
2013-08-11 08:22:00,68.2,67.6,27.76,SSE,157,0.0,0.0,98,0.00,,---,0.00,VWS V14.01,2013-08-11 12:22:00,
2013-08-11 08:27:00,68.4,67.8,27.85,SSE,157,0.0,0.0,98,0.00,,---,0.00,VWS V14.01,2013-08-11 12:27:00,
2013-08-11 08:32:00,68.7,68.1,27.85,SSE,157,0.0,0.0,98,0.00,,---,0.00,VWS V14.01,2013-08-11 12:32:00,
2013-08-11 08:38:00,68.9,68.3,27.85,SSE,157,0.0,0.0,98,0.00,,---,0.00,VWS V14.01,2013-08-11 12:38:00,
2013-08-11 08:43:00,69.3,68.7,27.96,SSE,157,0.0,2.7,98,0.00,,---,0.00,VWS V14.01,2013-08-11 12:43:00,
2013-08-11 08:48:00,69.6,69.0,27.96,SSE,157,0.0,0.0,98,0.00,,---,0.00,VWS V14.01,2013-08-11 12:48:00,
2013-08-11 08:53:00,70.0,69.4,27.96,SSE,157,0.0,0.0,98,0.00,,---,0.00,VWS V14.01,2013-08-11 12:53:00,
2013-08-11 08:58:00,70.5,69.9,28.20,SSE,157,0.0,0.0,98,0.00,,---,0.00,VWS V14.01,2013-08-11 12:58:00,
2013-08-11 09:03:00,71.1,70.5,28.20,SSE,157,0.0,0.0,98,0.00,,---,0.00,VWS V14.01,2013-08-11 13:03:00,
2013-08-11 09:08:00,71.4,70.8,28.20,SSE,157,0.0,0.0,98,0.00,,---,0.00,VWS V14.01,2013-08-11 13:08:00,
2013-08-11 09:13:00,71.8,71.2,28.08,SSE,157,0.0,0.0,98,0.00,,---,0.00,VWS V14.01,2013-08-11 13:13:00,
2013-08-11 09:18:00,71.8,71.2,28.08,SSE,157,0.0,0.0,98,0.00,,---,0.00,VWS V14.01,2013-08-11 13:18:00,
2013-08-11 09:23:00,72.0,71.4,28.08,SSE,157,0.0,0.0,98,0.00,,---,0.00,VWS V14.01,2013-08-11 13:23:00,
2013-08-11 09:28:00,72.3,71.7,28.14,SSE,157,0.0,0.0,98,0.00,,---,0.00,VWS V14.01,2013-08-11 13:28:00,
2013-08-11 09:33:00,72.7,72.1,28.14,SSE,157,0.0,0.0,98,0.00,,---,0.00,VWS V14.01,2013-08-11 13:33:00,
2013-08-11 09:38:00,75.7,75.1,28.14,SSE,157,0.0,0.0,98,0.00,,---,0.00,VWS V14.01,2013-08-11 13:38:00,
2013-08-11 09:44:00,78.6,78.0,28.08,SSE,157,0.0,0.0,98,0.00,,---,0.00,VWS V14.01,2013-08-11 13:44:00,
2013-08-11 09:49:00,78.3,77.7,28.08,SSE,157,0.0,0.0,98,0.00,,---,0.00,VWS V14.01,2013-08-11 13:49:00,
2013-08-11 09:54:00,77.5,76.9,28.08,SSE,157,0.0,0.0,98,0.00,,---,0.00,VWS V14.01,2013-08-11 13:54:00,
2013-08-11 09:59:00,77.2,76.6,28.29,SSE,157,0.0,0.0,98,0.00,,---,0.00,VWS V14.01,2013-08-11 13:59:00,
2013-08-11 10:04:00,77.0,76.4,28.29,SSE,157,0.0,0.0,98,0.00,,---,0.00,VWS V14.01,2013-08-11 14:04:00,
2013-08-11 10:09:00,76.8,76.2,28.29,SSE,157,0.0,0.0,98,0.00,,---,0.00,VWS V14.01,2013-08-11 14:09:00,
2013-08-11 10:14:00,77.0,76.4,27.91,SSE,157,0.0,0.0,98,0.00,,---,0.00,VWS V14.01,2013-08-11 14:14:00,
2013-08-11 10:19:00,77.0,76.1,27.91,SSE,157,0.0,0.0,97,0.00,,---,0.00,VWS V14.01,2013-08-11 14:19:00,
2013-08-11 10:24:00,76.6,75.4,27.91,SSE,157,0.0,0.0,96,0.00,,---,0.00,VWS V14.01,2013-08-11 14:24:00,
2013-08-11 10:29:00,77.0,75.5,28.44,SSE,157,0.0,0.0,95,0.00,,---,0.00,VWS V14.01,2013-08-11 14:29:00,
2013-08-11 10:34:00,77.0,75.1,28.44,SSE,157,0.0,0.0,94,0.00,,---,0.00,VWS V14.01,2013-08-11 14:34:00,
2013-08-11 10:40:00,76.3,74.1,28.32,SSE,157,0.0,0.0,93,0.00,,---,0.00,VWS V14.01,2013-08-11 14:40:00,
2013-08-11 10:45:00,76.8,75.3,28.32,SSE,157,0.0,0.0,95,0.00,,---,0.00,VWS V14.01,2013-08-11 14:45:00,
2013-08-11 10:50:00,76.3,75.1,28.32,SSE,157,0.0,0.0,96,0.00,,---,0.00,VWS V14.01,2013-08-11 14:50:00,
2013-08-11 10:55:00,75.9,74.7,28.08,SSE,157,0.0,0.0,96,0.00,,---,0.00,VWS V14.01,2013-08-11 14:55:00,
2013-08-11 11:00:00,75.7,74.5,28.08,SSE,157,0.0,0.0,96,0.00,,---,0.00,VWS V14.01,2013-08-11 15:00:00,
2013-08-11 11:05:00,75.7,74.5,28.08,SSE,157,0.0,0.0,96,0.00,,---,0.00,VWS V14.01,2013-08-11 15:05:00,
2013-08-11 11:10:00,76.3,75.4,27.96,SSE,157,0.0,0.0,97,0.00,,---,0.00,VWS V14.01,2013-08-11 15:10:00,
2013-08-11 11:15:00,76.8,76.2,27.96,SSE,157,0.0,0.0,98,0.00,,---,0.00,VWS V14.01,2013-08-11 15:15:00,
2013-08-11 11:20:00,77.4,76.8,27.96,SSW,210,0.0,4.0,98,0.00,,---,0.00,VWS V14.01,2013-08-11 15:20:00,
2013-08-11 11:25:00,77.9,77.0,27.96,SSW,210,0.0,0.0,97,0.00,,---,0.00,VWS V14.01,2013-08-11 15:25:00,
2013-08-11 11:30:00,78.1,77.2,27.96,West,261,0.0,0.0,97,0.00,,---,0.00,VWS V14.01,2013-08-11 15:30:00,
2013-08-11 11:35:00,78.4,76.6,27.96,ESE,113,3.1,3.1,94,0.00,,---,0.00,VWS V14.01,2013-08-11 15:35:00,
2013-08-11 11:40:00,78.8,76.6,27.96,ESE,113,2.7,2.7,93,0.00,,---,0.00,VWS V14.01,2013-08-11 15:40:00,
2013-08-11 11:45:00,79.2,76.6,27.96,SSE,155,2.7,4.0,92,0.00,,---,0.00,VWS V14.01,2013-08-11 15:45:00,
2013-08-11 11:50:00,79.5,77.0,27.96,SSE,167,2.7,2.7,92,0.00,,---,0.00,VWS V14.01,2013-08-11 15:50:00,
2013-08-11 11:55:00,80.2,76.7,28.08,SE,131,0.0,0.0,89,0.00,,---,0.00,VWS V14.01,2013-08-11 15:55:00,
2013-08-11 12:01:00,80.6,76.7,28.08,West,273,0.0,2.2,88,0.00,,---,0.00,VWS V14.01,2013-08-11 16:01:00,
2013-08-11 12:06:00,81.0,76.7,28.08,South,186,2.2,3.6,87,0.00,,---,0.00,VWS V14.01,2013-08-11 16:06:00,
2013-08-11 12:11:00,81.1,76.6,27.99,ESE,117,2.2,2.2,86,0.00,,---,0.00,VWS V14.01,2013-08-11 16:11:00,
2013-08-11 12:16:00,81.5,76.2,27.99,SSW,211,3.1,4.0,84,0.00,,---,0.00,VWS V14.01,2013-08-11 16:16:00,
2013-08-11 12:21:00,81.9,76.2,27.99,ENE,72,3.6,4.9,83,0.00,,---,0.00,VWS V14.01,2013-08-11 16:21:00,
2013-08-11 12:26:00,82.8,76.3,27.76,ESE,107,3.6,3.6,81,0.00,,---,0.00,VWS V14.01,2013-08-11 16:26:00,
2013-08-11 12:31:00,83.8,76.6,27.76,WSW,239,0.0,0.0,79,0.00,,---,0.00,VWS V14.01,2013-08-11 16:31:00,
2013-08-11 12:36:00,84.2,76.2,27.76,SSW,212,2.7,2.7,77,0.00,,---,0.00,VWS V14.01,2013-08-11 16:36:00,
2013-08-11 12:41:00,84.7,76.3,27.85,ESE,116,0.0,0.0,76,0.00,,---,0.00,VWS V14.01,2013-08-11 16:41:00,
2013-08-11 12:46:00,85.1,76.7,27.85,SE,130,0.0,2.7,76,0.00,,---,0.00,VWS V14.01,2013-08-11 16:46:00,
2013-08-11 12:51:00,85.5,77.4,27.85,SE,124,2.7,3.1,77,0.00,,---,0.00,VWS V14.01,2013-08-11 16:51:00,
2013-08-11 12:56:00,84.9,76.9,27.99,West,261,3.6,4.0,77,0.00,,---,0.00,VWS V14.01,2013-08-11 16:56:00,
2013-08-11 13:01:00,84.0,76.0,27.99,West,261,2.7,3.1,77,0.00,,---,0.00,VWS V14.01,2013-08-11 17:01:00,
2013-08-11 13:06:00,83.1,74.4,27.99,West,274,0.0,0.0,75,0.00,,---,0.00,VWS V14.01,2013-08-11 17:06:00,
2013-08-11 13:11:00,82.6,74.2,27.82,WSW,247,0.0,0.0,76,0.00,,---,0.00,VWS V14.01,2013-08-11 17:11:00,
2013-08-11 13:16:00,83.7,76.8,27.82,ENE,77,2.7,3.6,80,0.00,,---,0.00,VWS V14.01,2013-08-11 17:16:00,
2013-08-11 13:21:00,84.2,76.2,27.82,SE,132,3.1,3.1,77,0.00,,---,0.00,VWS V14.01,2013-08-11 17:21:00,
2013-08-11 13:26:00,84.0,75.6,27.99,ESE,116,2.7,2.7,76,0.00,,---,0.00,VWS V14.01,2013-08-11 17:26:00,
2013-08-11 13:31:00,83.5,74.7,27.99,SSE,158,3.1,3.1,75,0.00,,---,0.00,VWS V14.01,2013-08-11 17:31:00,
2013-08-11 13:36:00,82.6,74.6,27.99,SSE,157,0.0,0.0,77,0.00,,---,0.00,VWS V14.01,2013-08-11 17:36:00,
2013-08-11 13:41:00,81.9,74.7,27.73,SSE,157,0.0,0.0,79,0.00,,---,0.00,VWS V14.01,2013-08-11 17:41:00,
2013-08-11 13:46:00,81.1,74.8,27.73,SSE,160,0.0,0.0,81,0.00,,---,0.00,VWS V14.01,2013-08-11 17:46:00,
2013-08-11 13:51:00,80.8,75.1,27.73,SSE,160,0.0,0.0,83,0.00,,---,0.00,VWS V14.01,2013-08-11 17:51:00,
2013-08-11 13:57:00,80.4,74.8,27.82,SW,231,0.0,2.7,83,0.00,,---,0.00,VWS V14.01,2013-08-11 17:57:00,
2013-08-11 14:02:00,80.6,75.3,27.82,SW,232,0.0,0.0,84,0.00,,---,0.00,VWS V14.01,2013-08-11 18:02:00,
2013-08-11 14:07:00,80.8,74.4,27.82,ESE,123,0.0,2.7,81,0.00,,---,0.00,VWS V14.01,2013-08-11 18:07:00,
2013-08-11 14:12:00,80.4,75.2,27.85,SE,124,0.0,2.2,84,0.00,,---,0.00,VWS V14.01,2013-08-11 18:12:00,
2013-08-11 14:17:00,79.9,74.6,27.85,SE,124,0.0,0.0,84,0.00,,---,0.00,VWS V14.01,2013-08-11 18:17:00,
2013-08-11 14:22:00,79.2,74.3,27.85,SE,124,0.0,0.0,85,0.00,,---,0.00,VWS V14.01,2013-08-11 18:22:00,
2013-08-11 14:27:00,78.8,74.6,27.94,SE,124,0.0,0.0,87,0.00,,---,0.00,VWS V14.01,2013-08-11 18:27:00,
2013-08-11 14:32:00,78.8,74.6,27.94,SE,124,0.0,0.0,87,0.00,,---,0.00,VWS V14.01,2013-08-11 18:32:00,
2013-08-11 14:38:00,78.8,74.9,27.94,SE,124,0.0,0.0,88,0.00,,---,0.00,VWS V14.01,2013-08-11 18:38:00,
2013-08-11 14:42:00,79.3,75.5,27.82,SE,124,0.0,0.0,88,0.00,,---,0.00,VWS V14.01,2013-08-11 18:42:00,
2013-08-11 14:48:00,79.9,75.7,27.82,SE,124,0.0,0.0,87,0.00,,---,0.00,VWS V14.01,2013-08-11 18:48:00,
2013-08-11 14:53:00,80.4,76.2,27.82,SE,124,0.0,0.0,87,0.00,,---,0.00,VWS V14.01,2013-08-11 18:53:00,
2013-08-11 14:58:00,80.8,76.2,27.96,SSW,195,0.0,2.2,86,0.00,,---,0.00,VWS V14.01,2013-08-11 18:58:00,
2013-08-11 15:03:00,80.4,75.5,27.96,SSW,195,0.0,0.0,85,0.00,,---,0.00,VWS V14.01,2013-08-11 19:03:00,
2013-08-11 15:08:00,79.3,75.8,27.96,SSW,195,0.0,0.0,89,0.08,,---,0.08,VWS V14.01,2013-08-11 19:08:00,
2013-08-11 15:13:00,78.4,76.2,27.91,SSW,195,0.0,0.0,93,0.08,,---,0.08,VWS V14.01,2013-08-11 19:13:00,
2013-08-11 15:18:00,78.3,76.7,27.91,SSW,195,0.0,0.0,95,0.08,,---,0.08,VWS V14.01,2013-08-11 19:18:00,
2013-08-11 15:23:00,78.3,77.0,27.91,SSW,195,0.0,0.0,96,0.08,,---,0.08,VWS V14.01,2013-08-11 19:23:00,
2013-08-11 15:28:00,78.3,76.4,27.73,SSW,195,0.0,0.0,94,0.08,,---,0.08,VWS V14.01,2013-08-11 19:28:00,
2013-08-11 15:34:00,77.9,75.4,27.73,SSW,195,0.0,0.0,92,0.08,,---,0.08,VWS V14.01,2013-08-11 19:34:00,
2013-08-11 15:38:00,77.5,75.0,27.73,SSW,195,0.0,0.0,92,0.08,,---,0.08,VWS V14.01,2013-08-11 19:38:00,
2013-08-11 15:43:00,77.0,74.8,27.73,SSW,195,0.0,0.0,93,0.08,,---,0.08,VWS V14.01,2013-08-11 19:43:00,
2013-08-11 15:48:00,76.5,74.9,27.73,SSW,200,0.0,0.0,95,0.08,,---,0.08,VWS V14.01,2013-08-11 19:48:00,
2013-08-11 15:53:00,75.9,75.0,27.73,SSW,202,0.0,2.2,97,0.08,,---,0.08,VWS V14.01,2013-08-11 19:53:00,
2013-08-11 15:59:00,75.0,74.4,27.73,ESE,107,3.6,4.9,98,0.20,,---,0.20,VWS V14.01,2013-08-11 19:59:00,
2013-08-11 16:04:00,74.3,73.7,27.73,ESE,111,2.2,2.2,98,0.24,,---,0.24,VWS V14.01,2013-08-11 20:04:00,
2013-08-11 16:09:00,74.7,74.1,27.73,ESE,111,0.0,0.0,98,0.16,,---,0.24,VWS V14.01,2013-08-11 20:09:00,
2013-08-11 16:14:00,75.7,75.1,27.73,South,175,0.0,2.2,98,0.16,,---,0.24,VWS V14.01,2013-08-11 20:14:00,
2013-08-11 16:19:00,76.8,76.2,27.73,SSE,167,2.2,2.2,98,0.16,,---,0.24,VWS V14.01,2013-08-11 20:19:00,
2013-08-11 16:24:00,77.4,76.8,27.73,SE,142,0.0,0.0,98,0.16,,---,0.24,VWS V14.01,2013-08-11 20:24:00,
2013-08-11 16:29:00,78.1,77.5,27.76,East,91,0.0,2.2,98,0.16,,---,0.24,VWS V14.01,2013-08-11 20:29:00,
2013-08-11 16:34:00,78.4,77.8,27.76,East,93,2.7,2.7,98,0.16,,---,0.24,VWS V14.01,2013-08-11 20:34:00,
2013-08-11 16:39:00,78.1,77.5,27.76,South,170,0.0,3.1,98,0.16,,---,0.24,VWS V14.01,2013-08-11 20:39:00,
2013-08-11 16:44:00,77.4,76.8,27.79,East,96,0.0,0.0,98,0.16,,---,0.24,VWS V14.01,2013-08-11 20:44:00,
2013-08-11 16:49:00,77.0,76.4,27.79,East,96,0.0,0.0,98,0.16,,---,0.24,VWS V14.01,2013-08-11 20:49:00,
2013-08-11 16:54:00,77.0,76.4,27.79,East,96,0.0,0.0,98,0.16,,---,0.24,VWS V14.01,2013-08-11 20:54:00,
2013-08-11 17:00:00,77.5,76.9,27.76,East,96,0.0,0.0,98,0.04,,---,0.24,VWS V14.01,2013-08-11 21:00:00,
2013-08-11 17:04:00,77.9,77.0,27.76,ESE,111,0.0,0.0,97,0.00,,---,0.24,VWS V14.01,2013-08-11 21:04:00,
2013-08-11 17:10:00,78.4,76.9,27.85,ESE,111,0.0,0.0,95,0.00,,---,0.24,VWS V14.01,2013-08-11 21:10:00,
2013-08-11 17:14:00,79.3,77.5,27.85,ESE,108,3.1,3.1,94,0.00,,---,0.24,VWS V14.01,2013-08-11 21:14:00,
2013-08-11 17:20:00,79.7,77.8,27.85,ESE,108,0.0,0.0,94,0.00,,---,0.24,VWS V14.01,2013-08-11 21:20:00,
2013-08-11 17:25:00,79.5,77.7,27.85,SSW,203,0.0,0.0,94,0.00,,---,0.24,VWS V14.01,2013-08-11 21:25:00,
2013-08-11 17:30:00,79.5,77.3,27.88,SSW,212,0.0,0.0,93,0.00,,---,0.24,VWS V14.01,2013-08-11 21:30:00,
2013-08-11 17:35:00,79.3,77.1,27.88,SSW,212,0.0,0.0,93,0.00,,---,0.24,VWS V14.01,2013-08-11 21:35:00,
2013-08-11 17:40:00,79.0,77.1,27.82,SSW,213,2.2,3.1,94,0.00,,---,0.24,VWS V14.01,2013-08-11 21:40:00,
2013-08-11 17:45:00,78.6,76.8,27.82,WSW,249,0.0,0.0,94,0.00,,---,0.24,VWS V14.01,2013-08-11 21:45:00,
2013-08-11 17:50:00,78.3,75.8,27.82,SSW,207,0.0,0.0,92,0.00,,---,0.24,VWS V14.01,2013-08-11 21:50:00,
2013-08-11 17:55:00,78.1,75.6,27.79,East,83,0.0,0.0,92,0.00,,---,0.00,VWS V14.01,2013-08-11 21:55:00,
2013-08-11 18:00:00,77.9,75.4,27.79,SW,223,0.0,0.0,92,0.00,,---,0.24,VWS V14.01,2013-08-11 22:00:00,
2013-08-11 18:05:00,77.7,75.2,27.79,WSW,238,0.0,0.0,92,0.00,,---,0.24,VWS V14.01,2013-08-11 22:05:00,
2013-08-11 18:10:00,77.4,75.8,27.85,SW,215,0.0,0.0,95,0.00,,---,0.24,VWS V14.01,2013-08-11 22:10:00,
2013-08-11 18:15:00,76.8,75.6,27.85,SW,215,0.0,0.0,96,0.00,,---,0.24,VWS V14.01,2013-08-11 22:15:00,
2013-08-11 18:20:00,76.5,75.6,27.85,SW,215,0.0,0.0,97,0.00,,---,0.24,VWS V14.01,2013-08-11 22:20:00,
2013-08-11 18:25:00,76.1,75.5,27.79,SW,215,0.0,0.0,98,0.00,,---,0.24,VWS V14.01,2013-08-11 22:25:00,
2013-08-11 18:30:00,75.7,75.1,27.79,SW,215,0.0,0.0,98,0.00,,---,0.24,VWS V14.01,2013-08-11 22:30:00,
2013-08-11 18:35:00,75.6,75.0,27.79,SW,215,0.0,0.0,98,0.00,,---,0.24,VWS V14.01,2013-08-11 22:35:00,
2013-08-11 18:40:00,75.4,74.8,27.88,SW,215,0.0,0.0,98,0.00,,---,0.24,VWS V14.01,2013-08-11 22:40:00,
2013-08-11 18:45:00,75.2,74.6,27.88,SW,215,0.0,0.0,98,0.00,,---,0.24,VWS V14.01,2013-08-11 22:45:00,
2013-08-11 18:50:00,74.8,74.2,27.88,SW,215,0.0,0.0,98,0.00,,---,0.24,VWS V14.01,2013-08-11 22:50:00,
2013-08-11 18:55:00,74.5,73.9,27.85,SW,215,0.0,0.0,98,0.00,,---,0.24,VWS V14.01,2013-08-11 22:55:00,
2013-08-11 19:01:00,74.3,73.7,27.85,SW,215,0.0,0.0,98,0.00,,---,0.24,VWS V14.01,2013-08-11 23:01:00,
2013-08-11 19:06:00,74.1,73.5,27.85,SW,215,0.0,0.0,98,0.00,,---,0.24,VWS V14.01,2013-08-11 23:06:00,
2013-08-11 19:11:00,74.1,73.5,27.76,SW,215,0.0,0.0,98,0.00,,---,0.24,VWS V14.01,2013-08-11 23:11:00,
2013-08-11 19:16:00,73.9,73.3,27.76,SW,215,0.0,0.0,98,0.00,,---,0.00,VWS V14.01,2013-08-11 23:16:00,
2013-08-11 19:21:00,73.8,73.2,27.76,SW,215,0.0,0.0,98,0.00,,---,0.24,VWS V14.01,2013-08-11 23:21:00,
2013-08-11 19:26:00,73.8,73.2,27.79,SW,215,0.0,0.0,98,0.00,,---,0.24,VWS V14.01,2013-08-11 23:26:00,
2013-08-11 19:31:00,73.6,73.0,27.79,SW,215,0.0,0.0,98,0.00,,---,0.24,VWS V14.01,2013-08-11 23:31:00,
2013-08-11 19:36:00,73.4,72.8,27.79,SW,215,0.0,0.0,98,0.00,,---,0.24,VWS V14.01,2013-08-11 23:36:00,
2013-08-11 19:41:00,73.2,72.6,27.99,SW,215,0.0,0.0,98,0.00,,---,0.24,VWS V14.01,2013-08-11 23:41:00,
2013-08-11 19:46:00,73.0,72.4,27.99,SW,215,0.0,0.0,98,0.00,,---,0.24,VWS V14.01,2013-08-11 23:46:00,
2013-08-11 19:51:00,72.9,72.3,27.99,SW,215,0.0,0.0,98,0.00,,---,0.24,VWS V14.01,2013-08-11 23:51:00,
2013-08-11 19:56:00,72.7,72.1,27.82,SW,215,0.0,0.0,98,0.00,,---,0.24,VWS V14.01,2013-08-11 23:56:00,
2013-08-11 20:01:00,72.5,71.9,27.82,SW,215,0.0,0.0,98,0.00,,---,0.24,VWS V14.01,2013-08-12 00:01:00,
2013-08-11 20:06:00,72.5,71.9,27.82,SW,215,0.0,0.0,98,0.00,,---,0.24,VWS V14.01,2013-08-12 00:06:00,
2013-08-11 20:11:00,72.3,71.7,27.76,SW,215,0.0,0.0,98,0.00,,---,0.24,VWS V14.01,2013-08-12 00:11:00,
2013-08-11 20:16:00,72.3,71.7,27.76,SW,215,0.0,0.0,98,0.00,,---,0.24,VWS V14.01,2013-08-12 00:16:00,
2013-08-11 20:21:00,72.1,71.6,27.76,SW,215,0.0,0.0,98,0.00,,---,0.24,VWS V14.01,2013-08-12 00:21:00,
2013-08-11 20:27:00,72.1,71.6,27.67,SW,215,0.0,0.0,98,0.00,,---,0.24,VWS V14.01,2013-08-12 00:27:00,
2013-08-11 20:32:00,72.1,71.6,27.67,SW,216,0.0,0.0,98,0.00,,---,0.24,VWS V14.01,2013-08-12 00:32:00,
2013-08-11 20:37:00,72.0,71.4,27.67,SW,215,0.0,0.0,98,0.00,,---,0.24,VWS V14.01,2013-08-12 00:37:00,
2013-08-11 20:42:00,72.0,71.4,27.70,SW,215,0.0,0.0,98,0.00,,---,0.24,VWS V14.01,2013-08-12 00:42:00,
2013-08-11 20:47:00,71.8,71.2,27.70,SW,215,0.0,0.0,98,0.00,,---,0.24,VWS V14.01,2013-08-12 00:47:00,
2013-08-11 20:52:00,71.8,71.2,27.70,SW,215,0.0,0.0,98,0.00,,---,0.24,VWS V14.01,2013-08-12 00:52:00,
2013-08-11 20:57:00,71.8,71.2,27.67,SW,215,0.0,0.0,98,0.00,,---,0.24,VWS V14.01,2013-08-12 00:57:00,
2013-08-11 21:02:00,72.0,71.4,27.67,SW,215,0.0,0.0,98,0.00,,---,0.24,VWS V14.01,2013-08-12 01:02:00,
2013-08-11 21:07:00,71.8,71.2,27.67,SW,215,0.0,0.0,98,0.00,,---,0.24,VWS V14.01,2013-08-12 01:07:00,
2013-08-11 21:12:00,71.8,71.2,27.82,SW,215,0.0,0.0,98,0.00,,---,0.24,VWS V14.01,2013-08-12 01:12:00,
2013-08-11 21:18:00,71.8,71.2,27.82,SW,215,0.0,0.0,98,0.00,,---,0.24,VWS V14.01,2013-08-12 01:18:00,
2013-08-11 21:23:00,71.8,71.2,27.82,SW,215,0.0,0.0,98,0.00,,---,0.24,VWS V14.01,2013-08-12 01:23:00,
2013-08-11 21:28:00,71.6,71.0,27.82,SW,215,0.0,0.0,98,0.00,,---,0.24,VWS V14.01,2013-08-12 01:28:00,
2013-08-11 21:33:00,71.6,71.0,27.82,SW,215,0.0,0.0,98,0.00,,---,0.24,VWS V14.01,2013-08-12 01:33:00,
2013-08-11 21:38:00,71.4,70.8,27.82,SW,215,0.0,0.0,98,0.00,,---,0.24,VWS V14.01,2013-08-12 01:38:00,
2013-08-11 21:43:00,71.2,70.7,27.79,SW,215,0.0,0.0,98,0.00,,---,0.24,VWS V14.01,2013-08-12 01:43:00,
2013-08-11 21:48:00,71.1,70.5,27.79,SW,215,0.0,0.0,98,0.00,,---,0.24,VWS V14.01,2013-08-12 01:48:00,
2013-08-11 21:53:00,70.9,70.3,27.79,SW,215,0.0,0.0,98,0.00,,---,0.24,VWS V14.01,2013-08-12 01:53:00,
2013-08-11 21:58:00,70.9,70.3,27.82,SW,215,2.7,2.7,98,0.00,,---,0.24,VWS V14.01,2013-08-12 01:58:00,
2013-08-11 22:03:00,70.7,70.1,27.82,West,265,2.2,2.2,98,0.00,,---,0.24,VWS V14.01,2013-08-12 02:03:00,
2013-08-11 22:08:00,70.5,69.9,27.82,West,265,0.0,3.1,98,0.00,,---,0.24,VWS V14.01,2013-08-12 02:08:00,
2013-08-11 22:13:00,70.3,69.8,27.85,West,265,0.0,0.0,98,0.00,,---,0.24,VWS V14.01,2013-08-12 02:13:00,
2013-08-11 22:18:00,70.3,69.8,27.85,West,265,0.0,0.0,98,0.00,,---,0.24,VWS V14.01,2013-08-12 02:18:00,
2013-08-11 22:23:00,70.3,69.8,27.85,West,265,0.0,0.0,98,0.00,,---,0.24,VWS V14.01,2013-08-12 02:23:00,
2013-08-11 22:29:00,70.2,69.6,27.88,West,265,0.0,0.0,98,0.00,,---,0.24,VWS V14.01,2013-08-12 02:29:00,
2013-08-11 22:34:00,70.0,69.4,27.88,West,265,0.0,0.0,98,0.00,,---,0.24,VWS V14.01,2013-08-12 02:34:00,
2013-08-11 22:39:00,70.0,69.4,27.88,West,265,0.0,0.0,98,0.00,,---,0.24,VWS V14.01,2013-08-12 02:39:00,
2013-08-11 22:44:00,69.8,69.2,27.96,West,265,0.0,0.0,98,0.00,,---,0.24,VWS V14.01,2013-08-12 02:44:00,
2013-08-11 22:49:00,69.6,69.0,27.96,West,265,0.0,0.0,98,0.00,,---,0.24,VWS V14.01,2013-08-12 02:49:00,
2013-08-11 22:54:00,69.6,69.0,27.96,West,265,0.0,0.0,98,0.00,,---,0.24,VWS V14.01,2013-08-12 02:54:00,
2013-08-11 22:59:00,69.6,69.0,27.82,West,265,0.0,0.0,98,0.00,,---,0.24,VWS V14.01,2013-08-12 02:59:00,
2013-08-11 23:04:00,69.6,69.0,27.82,West,265,0.0,0.0,98,0.00,,---,0.24,VWS V14.01,2013-08-12 03:04:00,
2013-08-11 23:09:00,69.4,68.8,27.82,West,265,0.0,0.0,98,0.00,,---,0.24,VWS V14.01,2013-08-12 03:09:00,
2013-08-11 23:14:00,69.3,68.7,27.76,West,265,0.0,0.0,98,0.00,,---,0.24,VWS V14.01,2013-08-12 03:14:00,
2013-08-11 23:19:00,69.3,68.7,27.76,West,265,0.0,0.0,98,0.00,,---,0.24,VWS V14.01,2013-08-12 03:19:00,
2013-08-11 23:24:00,69.1,68.5,27.76,West,265,0.0,0.0,98,0.00,,---,0.24,VWS V14.01,2013-08-12 03:24:00,
2013-08-11 23:29:00,69.1,68.5,27.79,West,265,0.0,0.0,98,0.00,,---,0.24,VWS V14.01,2013-08-12 03:29:00,
2013-08-11 23:34:00,69.1,68.5,27.79,West,265,0.0,0.0,98,0.00,,---,0.24,VWS V14.01,2013-08-12 03:34:00,
2013-08-11 23:39:00,68.9,68.3,27.79,West,265,0.0,0.0,98,0.00,,---,0.24,VWS V14.01,2013-08-12 03:39:00,
2013-08-11 23:44:00,68.9,68.3,27.85,West,265,0.0,0.0,98,0.00,,---,0.24,VWS V14.01,2013-08-12 03:44:00,
2013-08-11 23:49:00,68.9,68.3,27.85,West,265,0.0,0.0,98,0.00,,---,0.24,VWS V14.01,2013-08-12 03:49:00,
2013-08-11 23:54:00,68.7,68.1,27.85,West,265,0.0,0.0,98,0.00,,---,0.24,VWS V14.01,2013-08-12 03:54:00,
2013-08-11 23:59:00,68.7,68.1,27.96,West,265,0.0,0.0,98,0.00,,---,0.24,VWS V14.01,2013-08-12 03:59:00,